Year,Month,Day,Hour,Minute,Value (Times are PST for temperature in C)
2011,08,07,00,00,16.30
2011,08,07,00,01,16.20
2011,08,07,00,02,16.20
2011,08,07,00,03,16.20
2011,08,07,00,04,16.10
2011,08,07,00,05,16.10
2011,08,07,00,06,16.10
2011,08,07,00,07,16.00
2011,08,07,00,08,16.00
2011,08,07,00,09,16.00
2011,08,07,00,10,15.90
2011,08,07,00,11,15.90
2011,08,07,00,12,15.90
2011,08,07,00,13,15.90
2011,08,07,00,14,15.90
2011,08,07,00,15,15.90
2011,08,07,00,16,15.90
2011,08,07,00,17,15.90
2011,08,07,00,18,15.90
2011,08,07,00,19,15.80
2011,08,07,00,20,15.80
2011,08,07,00,21,15.80
2011,08,07,00,22,15.80
2011,08,07,00,23,15.80
2011,08,07,00,24,15.80
2011,08,07,00,25,15.80
2011,08,07,00,26,15.80
2011,08,07,00,27,15.80
2011,08,07,00,28,15.80
2011,08,07,00,29,15.80
2011,08,07,00,30,15.90
2011,08,07,00,31,15.90
2011,08,07,00,32,15.90
2011,08,07,00,33,15.90
2011,08,07,00,34,15.80
2011,08,07,00,35,15.80
2011,08,07,00,36,15.80
2011,08,07,00,37,15.80
2011,08,07,00,38,15.80
2011,08,07,00,39,15.80
2011,08,07,00,40,15.70
2011,08,07,00,41,15.70
2011,08,07,00,42,15.70
2011,08,07,00,43,15.70
2011,08,07,00,44,15.60
2011,08,07,00,45,15.60
2011,08,07,00,46,15.60
2011,08,07,00,47,15.60
2011,08,07,00,48,15.50
2011,08,07,00,49,15.40
2011,08,07,00,50,15.40
2011,08,07,00,51,15.40
2011,08,07,00,52,15.30
2011,08,07,00,53,15.30
2011,08,07,00,54,15.30
2011,08,07,00,55,15.30
2011,08,07,00,56,15.20
2011,08,07,00,57,15.20
2011,08,07,00,58,15.20
2011,08,07,00,59,15.20
2011,08,07,01,00,15.20
2011,08,07,01,01,15.20
2011,08,07,01,02,15.20
2011,08,07,01,03,15.20
2011,08,07,01,04,15.30
2011,08,07,01,05,15.30
2011,08,07,01,06,15.30
2011,08,07,01,07,15.30
2011,08,07,01,08,15.30
2011,08,07,01,09,15.30
2011,08,07,01,10,15.30
2011,08,07,01,11,15.30
2011,08,07,01,12,15.30
2011,08,07,01,13,15.20
2011,08,07,01,14,15.20
2011,08,07,01,15,15.20
2011,08,07,01,16,15.20
2011,08,07,01,17,15.20
2011,08,07,01,18,15.20
2011,08,07,01,19,15.20
2011,08,07,01,20,15.20
2011,08,07,01,21,15.20
2011,08,07,01,22,15.10
2011,08,07,01,23,15.20
2011,08,07,01,24,15.20
2011,08,07,01,25,15.10
2011,08,07,01,26,15.10
2011,08,07,01,27,15.10
2011,08,07,01,28,15.10
2011,08,07,01,29,15.00
2011,08,07,01,30,15.00
2011,08,07,01,31,15.10
2011,08,07,01,32,15.10
2011,08,07,01,33,15.10
2011,08,07,01,34,15.00
2011,08,07,01,35,15.00
2011,08,07,01,36,15.10
2011,08,07,01,37,15.10
2011,08,07,01,38,15.10
2011,08,07,01,39,15.00
2011,08,07,01,40,15.00
2011,08,07,01,41,15.00
2011,08,07,01,42,15.00
2011,08,07,01,43,15.00
2011,08,07,01,44,15.00
2011,08,07,01,45,15.00
2011,08,07,01,46,15.00
2011,08,07,01,47,15.00
2011,08,07,01,48,15.00
2011,08,07,01,49,15.00
2011,08,07,01,50,15.00
2011,08,07,01,51,15.00
2011,08,07,01,52,15.00
2011,08,07,01,53,15.00
2011,08,07,01,54,15.00
2011,08,07,01,55,15.00
2011,08,07,01,56,15.00
2011,08,07,01,57,15.00
2011,08,07,01,58,15.00
2011,08,07,01,59,15.00
2011,08,07,02,00,15.00
2011,08,07,02,01,15.00
2011,08,07,02,02,15.00
2011,08,07,02,03,15.00
2011,08,07,02,04,15.00
2011,08,07,02,05,14.90
2011,08,07,02,06,14.90
2011,08,07,02,07,14.90
2011,08,07,02,08,14.80
2011,08,07,02,09,14.80
2011,08,07,02,10,14.80
2011,08,07,02,11,14.80
2011,08,07,02,12,14.70
2011,08,07,02,13,14.70
2011,08,07,02,14,14.70
2011,08,07,02,15,14.70
2011,08,07,02,16,14.60
2011,08,07,02,17,14.60
2011,08,07,02,18,14.60
2011,08,07,02,19,14.60
2011,08,07,02,20,14.60
2011,08,07,02,21,14.50
2011,08,07,02,22,14.50
2011,08,07,02,23,14.50
2011,08,07,02,24,14.40
2011,08,07,02,25,14.40
2011,08,07,02,26,14.40
2011,08,07,02,27,14.40
2011,08,07,02,28,14.40
2011,08,07,02,29,14.30
2011,08,07,02,30,14.30
2011,08,07,02,31,14.30
2011,08,07,02,32,14.30
2011,08,07,02,33,14.30
2011,08,07,02,34,14.20
2011,08,07,02,35,14.20
2011,08,07,02,36,14.20
2011,08,07,02,37,14.20
2011,08,07,02,38,14.20
2011,08,07,02,39,14.20
2011,08,07,02,40,14.20
2011,08,07,02,41,14.20
2011,08,07,02,42,14.20
2011,08,07,02,43,14.20
2011,08,07,02,44,14.20
2011,08,07,02,45,14.20
2011,08,07,02,46,14.20
2011,08,07,02,47,14.20
2011,08,07,02,48,14.10
2011,08,07,02,49,14.10
2011,08,07,02,50,14.10
2011,08,07,02,51,14.10
2011,08,07,02,52,14.10
2011,08,07,02,53,14.10
2011,08,07,02,54,14.20
2011,08,07,02,55,14.20
2011,08,07,02,56,14.20
2011,08,07,02,57,14.10
2011,08,07,02,58,14.20
2011,08,07,02,59,14.10
2011,08,07,03,00,14.10
2011,08,07,03,01,14.10
2011,08,07,03,02,14.10
2011,08,07,03,03,14.10
2011,08,07,03,04,14.10
2011,08,07,03,05,14.10
2011,08,07,03,06,14.10
2011,08,07,03,07,14.10
2011,08,07,03,08,14.10
2011,08,07,03,09,14.10
2011,08,07,03,10,14.10
2011,08,07,03,11,14.10
2011,08,07,03,12,14.10
2011,08,07,03,13,14.10
2011,08,07,03,14,14.10
2011,08,07,03,15,14.10
2011,08,07,03,16,14.10
2011,08,07,03,17,14.10
2011,08,07,03,18,14.10
2011,08,07,03,19,14.10
2011,08,07,03,20,14.10
2011,08,07,03,21,14.10
2011,08,07,03,22,14.10
2011,08,07,03,23,14.10
2011,08,07,03,24,14.10
2011,08,07,03,25,14.10
2011,08,07,03,26,14.10
2011,08,07,03,27,14.10
2011,08,07,03,28,14.00
2011,08,07,03,29,14.00
2011,08,07,03,30,14.00
2011,08,07,03,31,14.00
2011,08,07,03,32,14.00
2011,08,07,03,33,13.90
2011,08,07,03,34,13.90
2011,08,07,03,35,13.90
2011,08,07,03,36,13.90
2011,08,07,03,37,13.90
2011,08,07,03,38,13.90
2011,08,07,03,39,13.90
2011,08,07,03,40,13.90
2011,08,07,03,41,13.90
2011,08,07,03,42,13.90
2011,08,07,03,43,13.80
2011,08,07,03,44,13.80
2011,08,07,03,45,13.80
2011,08,07,03,46,13.80
2011,08,07,03,47,13.80
2011,08,07,03,48,13.80
2011,08,07,03,49,13.70
2011,08,07,03,50,13.70
2011,08,07,03,51,13.70
2011,08,07,03,52,13.70
2011,08,07,03,53,13.70
2011,08,07,03,54,13.70
2011,08,07,03,55,13.60
2011,08,07,03,56,13.60
2011,08,07,03,57,13.60
2011,08,07,03,58,13.60
2011,08,07,03,59,13.60
2011,08,07,04,00,13.60
2011,08,07,04,01,13.50
2011,08,07,04,02,13.50
2011,08,07,04,03,13.50
2011,08,07,04,04,13.50
2011,08,07,04,05,13.40
2011,08,07,04,06,13.40
2011,08,07,04,07,13.40
2011,08,07,04,08,13.40
2011,08,07,04,09,13.40
2011,08,07,04,10,13.30
2011,08,07,04,11,13.30
2011,08,07,04,12,13.30
2011,08,07,04,13,13.30
2011,08,07,04,14,13.20
2011,08,07,04,15,13.20
2011,08,07,04,16,13.20
2011,08,07,04,17,13.20
2011,08,07,04,18,13.20
2011,08,07,04,19,13.10
2011,08,07,04,20,13.10
2011,08,07,04,21,13.10
2011,08,07,04,22,13.10
2011,08,07,04,23,13.10
2011,08,07,04,24,13.10
2011,08,07,04,25,13.10
2011,08,07,04,26,13.00
2011,08,07,04,27,13.00
2011,08,07,04,28,13.00
2011,08,07,04,29,13.00
2011,08,07,04,30,13.00
2011,08,07,04,31,13.00
2011,08,07,04,32,12.90
2011,08,07,04,33,12.90
2011,08,07,04,34,12.90
2011,08,07,04,35,12.90
2011,08,07,04,36,12.90
2011,08,07,04,37,12.90
2011,08,07,04,38,12.80
2011,08,07,04,39,12.80
2011,08,07,04,40,12.80
2011,08,07,04,41,12.80
2011,08,07,04,42,12.80
2011,08,07,04,43,12.80
2011,08,07,04,44,12.70
2011,08,07,04,45,12.70
2011,08,07,04,46,12.70
2011,08,07,04,47,12.70
2011,08,07,04,48,12.70
2011,08,07,04,49,12.70
2011,08,07,04,50,12.70
2011,08,07,04,51,12.70
2011,08,07,04,52,12.70
2011,08,07,04,53,12.70
2011,08,07,04,54,12.70
2011,08,07,04,55,12.60
2011,08,07,04,56,12.60
2011,08,07,04,57,12.60
2011,08,07,04,58,12.60
2011,08,07,04,59,12.60
2011,08,07,05,00,12.60
2011,08,07,05,01,12.60
2011,08,07,05,02,12.50
2011,08,07,05,03,12.50
2011,08,07,05,04,12.50
2011,08,07,05,05,12.50
2011,08,07,05,06,12.50
2011,08,07,05,07,12.50
2011,08,07,05,08,12.50
2011,08,07,05,09,12.40
2011,08,07,05,10,12.40
2011,08,07,05,11,12.40
2011,08,07,05,12,12.40
2011,08,07,05,13,12.40
2011,08,07,05,14,12.40
2011,08,07,05,15,12.30
2011,08,07,05,16,12.30
2011,08,07,05,17,12.30
2011,08,07,05,18,12.30
2011,08,07,05,19,12.30
2011,08,07,05,20,12.30
2011,08,07,05,21,12.30
2011,08,07,05,22,12.30
2011,08,07,05,23,12.20
2011,08,07,05,24,12.20
2011,08,07,05,25,12.20
2011,08,07,05,26,12.20
2011,08,07,05,27,12.20
2011,08,07,05,28,12.20
2011,08,07,05,29,12.20
2011,08,07,05,30,12.20
2011,08,07,05,31,12.20
2011,08,07,05,32,12.20
2011,08,07,05,33,12.10
2011,08,07,05,34,12.10
2011,08,07,05,35,12.10
2011,08,07,05,36,12.10
2011,08,07,05,37,12.10
2011,08,07,05,38,12.10
2011,08,07,05,39,12.10
2011,08,07,05,40,12.10
2011,08,07,05,41,12.10
2011,08,07,05,42,12.10
2011,08,07,05,43,12.10
2011,08,07,05,44,12.10
2011,08,07,05,45,12.10
2011,08,07,05,46,12.10
2011,08,07,05,47,12.10
2011,08,07,05,48,12.10
2011,08,07,05,49,12.10
2011,08,07,05,50,12.10
2011,08,07,05,51,12.10
2011,08,07,05,52,12.10
2011,08,07,05,53,12.10
2011,08,07,05,54,12.00
2011,08,07,05,55,12.00
2011,08,07,05,56,12.10
2011,08,07,05,57,12.10
2011,08,07,05,58,12.00
2011,08,07,05,59,12.10
2011,08,07,06,00,12.10
2011,08,07,06,01,12.10
2011,08,07,06,02,12.10
2011,08,07,06,03,12.10
2011,08,07,06,04,12.10
2011,08,07,06,05,12.10
2011,08,07,06,06,12.10
2011,08,07,06,07,12.10
2011,08,07,06,08,12.00
2011,08,07,06,09,12.00
2011,08,07,06,10,12.00
2011,08,07,06,11,12.00
2011,08,07,06,12,12.00
2011,08,07,06,13,12.00
2011,08,07,06,14,12.00
2011,08,07,06,15,12.00
2011,08,07,06,16,12.00
2011,08,07,06,17,12.00
2011,08,07,06,18,12.00
2011,08,07,06,19,12.00
2011,08,07,06,20,12.00
2011,08,07,06,21,12.00
2011,08,07,06,22,12.00
2011,08,07,06,23,12.00
2011,08,07,06,24,12.00
2011,08,07,06,25,12.00
2011,08,07,06,26,12.00
2011,08,07,06,27,12.00
2011,08,07,06,28,11.90
2011,08,07,06,29,11.90
2011,08,07,06,30,11.90
2011,08,07,06,31,11.90
2011,08,07,06,32,11.90
2011,08,07,06,33,12.00
2011,08,07,06,34,12.00
2011,08,07,06,35,12.00
2011,08,07,06,36,12.00
2011,08,07,06,37,12.00
2011,08,07,06,38,12.00
2011,08,07,06,39,12.00
2011,08,07,06,40,12.00
2011,08,07,06,41,12.00
2011,08,07,06,42,12.00
2011,08,07,06,43,12.10
2011,08,07,06,44,12.10
2011,08,07,06,45,12.10
2011,08,07,06,46,12.10
2011,08,07,06,47,12.10
2011,08,07,06,48,12.10
2011,08,07,06,49,12.20
2011,08,07,06,50,12.20
2011,08,07,06,51,12.20
2011,08,07,06,52,12.20
2011,08,07,06,53,12.20
2011,08,07,06,54,12.30
2011,08,07,06,55,12.30
2011,08,07,06,56,12.30
2011,08,07,06,57,12.30
2011,08,07,06,58,12.30
2011,08,07,06,59,12.40
2011,08,07,07,00,12.40
2011,08,07,07,01,12.40
2011,08,07,07,02,12.40
2011,08,07,07,03,12.40
2011,08,07,07,04,12.40
2011,08,07,07,05,12.50
2011,08,07,07,06,12.50
2011,08,07,07,07,12.50
2011,08,07,07,08,12.50
2011,08,07,07,09,12.50
2011,08,07,07,10,12.60
2011,08,07,07,11,12.60
2011,08,07,07,12,12.60
2011,08,07,07,13,12.60
2011,08,07,07,14,12.70
2011,08,07,07,15,12.70
2011,08,07,07,16,12.70
2011,08,07,07,17,12.70
2011,08,07,07,18,12.70
2011,08,07,07,19,12.80
2011,08,07,07,20,12.80
2011,08,07,07,21,12.80
2011,08,07,07,22,12.80
2011,08,07,07,23,12.90
2011,08,07,07,24,12.90
2011,08,07,07,25,12.90
2011,08,07,07,26,12.90
2011,08,07,07,27,13.00
2011,08,07,07,28,13.00
2011,08,07,07,29,13.00
2011,08,07,07,30,13.10
2011,08,07,07,31,13.10
2011,08,07,07,32,13.10
2011,08,07,07,33,13.10
2011,08,07,07,34,13.10
2011,08,07,07,35,13.20
2011,08,07,07,36,13.20
2011,08,07,07,37,13.20
2011,08,07,07,38,13.30
2011,08,07,07,39,13.30
2011,08,07,07,40,13.30
2011,08,07,07,41,13.40
2011,08,07,07,42,13.40
2011,08,07,07,43,13.40
2011,08,07,07,44,13.40
2011,08,07,07,45,13.40
2011,08,07,07,46,13.40
2011,08,07,07,47,13.40
2011,08,07,07,48,13.50
2011,08,07,07,49,13.50
2011,08,07,07,50,13.50
2011,08,07,07,51,13.50
2011,08,07,07,52,13.60
2011,08,07,07,53,13.60
2011,08,07,07,54,13.60
2011,08,07,07,55,13.70
2011,08,07,07,56,13.70
2011,08,07,07,57,13.70
2011,08,07,07,58,13.70
2011,08,07,07,59,13.80
2011,08,07,08,00,13.80
2011,08,07,08,01,13.80
2011,08,07,08,02,13.90
2011,08,07,08,03,13.90
2011,08,07,08,04,13.90
2011,08,07,08,05,14.00
2011,08,07,08,06,14.00
2011,08,07,08,07,14.10
2011,08,07,08,08,14.10
2011,08,07,08,09,14.10
2011,08,07,08,10,14.20
2011,08,07,08,11,14.20
2011,08,07,08,12,14.20
2011,08,07,08,13,14.30
2011,08,07,08,14,14.30
2011,08,07,08,15,14.30
2011,08,07,08,16,14.30
2011,08,07,08,17,14.40
2011,08,07,08,18,14.40
2011,08,07,08,19,14.50
2011,08,07,08,20,14.50
2011,08,07,08,21,14.50
2011,08,07,08,22,14.60
2011,08,07,08,23,14.60
2011,08,07,08,24,14.70
2011,08,07,08,25,14.70
2011,08,07,08,26,14.70
2011,08,07,08,27,14.80
2011,08,07,08,28,14.80
2011,08,07,08,29,14.90
2011,08,07,08,30,14.90
2011,08,07,08,31,15.00
2011,08,07,08,32,15.00
2011,08,07,08,33,15.00
2011,08,07,08,34,15.00
2011,08,07,08,35,15.00
2011,08,07,08,36,15.00
2011,08,07,08,37,15.00
2011,08,07,08,38,15.10
2011,08,07,08,39,15.20
2011,08,07,08,40,15.30
2011,08,07,08,41,15.30
2011,08,07,08,42,15.30
2011,08,07,08,43,15.40
2011,08,07,08,44,15.50
2011,08,07,08,45,15.50
2011,08,07,08,46,15.60
2011,08,07,08,47,15.70
2011,08,07,08,48,15.70
2011,08,07,08,49,15.80
2011,08,07,08,50,15.80
2011,08,07,08,51,15.90
2011,08,07,08,52,15.90
2011,08,07,08,53,16.00
2011,08,07,08,54,16.00
2011,08,07,08,55,16.10
2011,08,07,08,56,16.20
2011,08,07,08,57,16.20
2011,08,07,08,58,16.20
2011,08,07,08,59,16.30
2011,08,07,09,00,16.30
2011,08,07,09,01,16.40
2011,08,07,09,02,16.40
2011,08,07,09,03,16.50
2011,08,07,09,04,16.60
2011,08,07,09,05,16.70
2011,08,07,09,06,16.70
2011,08,07,09,07,16.70
2011,08,07,09,08,16.80
2011,08,07,09,09,16.80
2011,08,07,09,10,16.80
2011,08,07,09,11,16.90
2011,08,07,09,12,16.90
2011,08,07,09,13,16.90
2011,08,07,09,14,16.90
2011,08,07,09,15,16.90
2011,08,07,09,16,16.90
2011,08,07,09,17,16.90
2011,08,07,09,18,17.00
2011,08,07,09,19,17.00
2011,08,07,09,20,17.10
2011,08,07,09,21,17.10
2011,08,07,09,22,17.20
2011,08,07,09,23,17.20
2011,08,07,09,24,17.20
2011,08,07,09,25,17.20
2011,08,07,09,26,17.20
2011,08,07,09,27,17.20
2011,08,07,09,28,17.20
2011,08,07,09,29,17.20
2011,08,07,09,30,17.30
2011,08,07,09,31,17.40
2011,08,07,09,32,17.40
2011,08,07,09,33,17.50
2011,08,07,09,34,17.60
2011,08,07,09,35,17.70
2011,08,07,09,36,17.80
2011,08,07,09,37,17.90
2011,08,07,09,38,17.90
2011,08,07,09,39,18.00
2011,08,07,09,40,18.00
2011,08,07,09,41,18.10
2011,08,07,09,42,18.10
2011,08,07,09,43,18.10
2011,08,07,09,44,18.20
2011,08,07,09,45,18.30
2011,08,07,09,46,18.40
2011,08,07,09,47,18.50
2011,08,07,09,48,18.60
2011,08,07,09,49,18.70
2011,08,07,09,50,18.80
2011,08,07,09,51,18.90
2011,08,07,09,52,19.00
2011,08,07,09,53,19.10
2011,08,07,09,54,19.10
2011,08,07,09,55,19.20
2011,08,07,09,56,19.20
2011,08,07,09,57,19.30
2011,08,07,09,58,19.30
2011,08,07,09,59,19.40
2011,08,07,10,00,19.50
2011,08,07,10,01,19.50
2011,08,07,10,02,19.60
2011,08,07,10,03,19.60
2011,08,07,10,04,19.60
2011,08,07,10,05,19.70
2011,08,07,10,06,19.70
2011,08,07,10,07,19.70
2011,08,07,10,08,19.70
2011,08,07,10,09,19.70
2011,08,07,10,10,19.70
2011,08,07,10,11,19.70
2011,08,07,10,12,19.70
2011,08,07,10,13,19.60
2011,08,07,10,14,19.60
2011,08,07,10,15,19.60
2011,08,07,10,16,19.70
2011,08,07,10,17,19.70
2011,08,07,10,18,19.70
2011,08,07,10,19,19.80
2011,08,07,10,20,19.80
2011,08,07,10,21,19.90
2011,08,07,10,22,19.90
2011,08,07,10,23,20.00
2011,08,07,10,24,20.00
2011,08,07,10,25,20.10
2011,08,07,10,26,20.00
2011,08,07,10,27,20.00
2011,08,07,10,28,20.00
2011,08,07,10,29,20.10
2011,08,07,10,30,20.10
2011,08,07,10,31,20.10
2011,08,07,10,32,20.20
2011,08,07,10,33,20.30
2011,08,07,10,34,20.30
2011,08,07,10,35,20.40
2011,08,07,10,36,20.40
2011,08,07,10,37,20.50
2011,08,07,10,38,20.50
2011,08,07,10,39,20.60
2011,08,07,10,40,20.60
2011,08,07,10,41,20.60
2011,08,07,10,42,20.70
2011,08,07,10,43,20.70
2011,08,07,10,44,20.70
2011,08,07,10,45,20.80
2011,08,07,10,46,20.80
2011,08,07,10,47,20.80
2011,08,07,10,48,20.90
2011,08,07,10,49,20.90
2011,08,07,10,50,20.90
2011,08,07,10,51,20.90
2011,08,07,10,52,21.00
2011,08,07,10,53,21.00
2011,08,07,10,54,21.00
2011,08,07,10,55,21.00
2011,08,07,10,56,21.00
2011,08,07,10,57,21.10
2011,08,07,10,58,21.10
2011,08,07,10,59,21.20
2011,08,07,11,00,21.10
2011,08,07,11,01,21.00
2011,08,07,11,02,20.90
2011,08,07,11,03,20.80
2011,08,07,11,04,20.70
2011,08,07,11,05,20.70
2011,08,07,11,06,20.70
2011,08,07,11,07,20.70
2011,08,07,11,08,20.70
2011,08,07,11,09,20.70
2011,08,07,11,10,20.70
2011,08,07,11,11,20.70
2011,08,07,11,12,20.70
2011,08,07,11,13,20.80
2011,08,07,11,14,20.80
2011,08,07,11,15,20.80
2011,08,07,11,16,20.80
2011,08,07,11,17,20.90
2011,08,07,11,18,20.90
2011,08,07,11,19,21.00
2011,08,07,11,20,21.00
2011,08,07,11,21,21.00
2011,08,07,11,22,21.00
2011,08,07,11,23,21.00
2011,08,07,11,24,21.10
2011,08,07,11,25,21.20
2011,08,07,11,26,21.20
2011,08,07,11,27,21.30
2011,08,07,11,28,21.40
2011,08,07,11,29,21.50
2011,08,07,11,30,21.50
2011,08,07,11,31,21.50
2011,08,07,11,32,21.50
2011,08,07,11,33,21.50
2011,08,07,11,34,21.60
2011,08,07,11,35,21.60
2011,08,07,11,36,21.70
2011,08,07,11,37,21.80
2011,08,07,11,38,21.80
2011,08,07,11,39,21.80
2011,08,07,11,40,21.80
2011,08,07,11,41,21.90
2011,08,07,11,42,21.90
2011,08,07,11,43,22.00
2011,08,07,11,44,22.00
2011,08,07,11,45,22.00
2011,08,07,11,46,22.10
2011,08,07,11,47,22.10
2011,08,07,11,48,22.10
2011,08,07,11,49,22.10
2011,08,07,11,50,22.20
2011,08,07,11,51,22.20
2011,08,07,11,52,22.20
2011,08,07,11,53,22.30
2011,08,07,11,54,22.30
2011,08,07,11,55,22.30
2011,08,07,11,56,22.40
2011,08,07,11,57,22.50
2011,08,07,11,58,22.50
2011,08,07,11,59,22.60
2011,08,07,12,00,22.60
2011,08,07,12,01,22.60
2011,08,07,12,02,22.60
2011,08,07,12,03,22.60
2011,08,07,12,04,22.60
2011,08,07,12,05,22.60
2011,08,07,12,06,22.50
2011,08,07,12,07,22.50
2011,08,07,12,08,22.40
2011,08,07,12,09,22.30
2011,08,07,12,10,22.30
2011,08,07,12,11,22.30
2011,08,07,12,12,22.30
2011,08,07,12,13,22.20
2011,08,07,12,14,22.20
2011,08,07,12,15,22.30
2011,08,07,12,16,22.30
2011,08,07,12,17,22.40
2011,08,07,12,18,22.40
2011,08,07,12,19,22.40
2011,08,07,12,20,22.50
2011,08,07,12,21,22.50
2011,08,07,12,22,22.60
2011,08,07,12,23,22.60
2011,08,07,12,24,22.50
2011,08,07,12,25,22.50
2011,08,07,12,26,22.50
2011,08,07,12,27,22.60
2011,08,07,12,28,22.60
2011,08,07,12,29,22.60
2011,08,07,12,30,22.60
2011,08,07,12,31,22.50
2011,08,07,12,32,22.40
2011,08,07,12,33,22.40
2011,08,07,12,34,22.40
2011,08,07,12,35,22.40
2011,08,07,12,36,22.50
2011,08,07,12,37,22.60
2011,08,07,12,38,22.60
2011,08,07,12,39,22.60
2011,08,07,12,40,22.60
2011,08,07,12,41,22.60
2011,08,07,12,42,22.60
2011,08,07,12,43,22.60
2011,08,07,12,44,22.60
2011,08,07,12,45,22.60
2011,08,07,12,46,22.60
2011,08,07,12,47,22.60
2011,08,07,12,48,22.60
2011,08,07,12,49,22.60
2011,08,07,12,50,22.60
2011,08,07,12,51,22.60
2011,08,07,12,52,22.60
2011,08,07,12,53,22.60
2011,08,07,12,54,22.60
2011,08,07,12,55,22.60
2011,08,07,12,56,22.60
2011,08,07,12,57,22.70
2011,08,07,12,58,22.70
2011,08,07,12,59,22.80
2011,08,07,13,00,22.80
2011,08,07,13,01,22.80
2011,08,07,13,02,22.80
2011,08,07,13,03,22.80
2011,08,07,13,04,22.80
2011,08,07,13,05,22.80
2011,08,07,13,06,22.80
2011,08,07,13,07,22.80
2011,08,07,13,08,22.80
2011,08,07,13,09,22.70
2011,08,07,13,10,22.60
2011,08,07,13,11,22.60
2011,08,07,13,12,22.60
2011,08,07,13,13,22.60
2011,08,07,13,14,22.60
2011,08,07,13,15,22.70
2011,08,07,13,16,22.80
2011,08,07,13,17,22.80
2011,08,07,13,18,22.80
2011,08,07,13,19,22.80
2011,08,07,13,20,22.70
2011,08,07,13,21,22.70
2011,08,07,13,22,22.70
2011,08,07,13,23,22.70
2011,08,07,13,24,22.70
2011,08,07,13,25,22.80
2011,08,07,13,26,22.80
2011,08,07,13,27,22.80
2011,08,07,13,28,22.90
2011,08,07,13,29,22.90
2011,08,07,13,30,22.90
2011,08,07,13,31,22.90
2011,08,07,13,32,22.80
2011,08,07,13,33,22.80
2011,08,07,13,34,22.80
2011,08,07,13,35,22.70
2011,08,07,13,36,22.70
2011,08,07,13,37,22.70
2011,08,07,13,38,22.60
2011,08,07,13,39,22.50
2011,08,07,13,40,22.50
2011,08,07,13,41,22.50
2011,08,07,13,42,22.50
2011,08,07,13,43,22.50
2011,08,07,13,44,22.50
2011,08,07,13,45,22.40
2011,08,07,13,46,22.40
2011,08,07,13,47,22.50
2011,08,07,13,48,22.60
2011,08,07,13,49,22.60
2011,08,07,13,50,22.70
2011,08,07,13,51,22.70
2011,08,07,13,52,22.80
2011,08,07,13,53,22.90
2011,08,07,13,54,22.90
2011,08,07,13,55,22.90
2011,08,07,13,56,22.80
2011,08,07,13,57,22.80
2011,08,07,13,58,22.80
2011,08,07,13,59,22.70
2011,08,07,14,00,22.70
2011,08,07,14,01,22.60
2011,08,07,14,02,22.50
2011,08,07,14,03,22.40
2011,08,07,14,04,22.30
2011,08,07,14,05,22.30
2011,08,07,14,06,22.30
2011,08,07,14,07,22.20
2011,08,07,14,08,22.20
2011,08,07,14,09,22.10
2011,08,07,14,10,22.10
2011,08,07,14,11,22.20
2011,08,07,14,12,22.20
2011,08,07,14,13,22.20
2011,08,07,14,14,22.30
2011,08,07,14,15,22.30
2011,08,07,14,16,22.30
2011,08,07,14,17,22.30
2011,08,07,14,18,22.30
2011,08,07,14,19,22.30
2011,08,07,14,20,22.40
2011,08,07,14,21,22.40
2011,08,07,14,22,22.40
2011,08,07,14,23,22.40
2011,08,07,14,24,22.40
2011,08,07,14,25,22.50
2011,08,07,14,26,22.60
2011,08,07,14,27,22.70
2011,08,07,14,28,22.70
2011,08,07,14,29,22.80
2011,08,07,14,30,22.80
2011,08,07,14,31,22.70
2011,08,07,14,32,22.80
2011,08,07,14,33,22.80
2011,08,07,14,34,22.90
2011,08,07,14,35,23.00
2011,08,07,14,36,23.10
2011,08,07,14,37,23.20
2011,08,07,14,38,23.30
2011,08,07,14,39,23.30
2011,08,07,14,40,23.30
2011,08,07,14,41,23.30
2011,08,07,14,42,23.20
2011,08,07,14,43,23.10
2011,08,07,14,44,23.10
2011,08,07,14,45,23.10
2011,08,07,14,46,23.10
2011,08,07,14,47,23.10
2011,08,07,14,48,23.10
2011,08,07,14,49,23.10
2011,08,07,14,50,23.10
2011,08,07,14,51,23.20
2011,08,07,14,52,23.20
2011,08,07,14,53,23.20
2011,08,07,14,54,23.10
2011,08,07,14,55,23.00
2011,08,07,14,56,23.00
2011,08,07,14,57,23.10
2011,08,07,14,58,23.10
2011,08,07,14,59,23.20
2011,08,07,15,00,23.30
2011,08,07,15,01,23.40
2011,08,07,15,02,23.50
2011,08,07,15,03,23.50
2011,08,07,15,04,23.50
2011,08,07,15,05,23.60
2011,08,07,15,06,23.70
2011,08,07,15,07,23.70
2011,08,07,15,08,23.80
2011,08,07,15,09,23.90
2011,08,07,15,10,23.90
2011,08,07,15,11,23.90
2011,08,07,15,12,23.80
2011,08,07,15,13,23.60
2011,08,07,15,14,23.50
2011,08,07,15,15,23.40
2011,08,07,15,16,23.30
2011,08,07,15,17,23.20
2011,08,07,15,18,23.20
2011,08,07,15,19,23.20
2011,08,07,15,20,23.20
2011,08,07,15,21,23.20
2011,08,07,15,22,23.20
2011,08,07,15,23,23.30
2011,08,07,15,24,23.30
2011,08,07,15,25,23.30
2011,08,07,15,26,23.30
2011,08,07,15,27,23.20
2011,08,07,15,28,23.20
2011,08,07,15,29,23.20
2011,08,07,15,30,23.20
2011,08,07,15,31,23.20
2011,08,07,15,32,23.20
2011,08,07,15,33,23.20
2011,08,07,15,34,23.20
2011,08,07,15,35,23.30
2011,08,07,15,36,23.30
2011,08,07,15,37,23.40
2011,08,07,15,38,23.40
2011,08,07,15,39,23.50
2011,08,07,15,40,23.60
2011,08,07,15,41,23.60
2011,08,07,15,42,23.70
2011,08,07,15,43,23.70
2011,08,07,15,44,23.70
2011,08,07,15,45,23.70
2011,08,07,15,46,23.70
2011,08,07,15,47,23.70
2011,08,07,15,48,23.80
2011,08,07,15,49,23.80
2011,08,07,15,50,23.90
2011,08,07,15,51,23.90
2011,08,07,15,52,23.90
2011,08,07,15,53,23.90
2011,08,07,15,54,23.90
2011,08,07,15,55,23.90
2011,08,07,15,56,23.90
2011,08,07,15,57,23.80
2011,08,07,15,58,23.80
2011,08,07,15,59,23.80
2011,08,07,16,00,23.90
2011,08,07,16,01,23.90
2011,08,07,16,02,23.90
2011,08,07,16,03,24.00
2011,08,07,16,04,24.10
2011,08,07,16,05,24.10
2011,08,07,16,06,24.10
2011,08,07,16,07,24.10
2011,08,07,16,08,24.10
2011,08,07,16,09,24.20
2011,08,07,16,10,24.20
2011,08,07,16,11,24.20
2011,08,07,16,12,24.20
2011,08,07,16,13,24.20
2011,08,07,16,14,24.20
2011,08,07,16,15,24.10
2011,08,07,16,16,24.00
2011,08,07,16,17,23.90
2011,08,07,16,18,23.80
2011,08,07,16,19,23.80
2011,08,07,16,20,23.70
2011,08,07,16,21,23.70
2011,08,07,16,22,23.70
2011,08,07,16,23,23.70
2011,08,07,16,24,23.70
2011,08,07,16,25,23.70
2011,08,07,16,26,23.80
2011,08,07,16,27,23.80
2011,08,07,16,28,23.90
2011,08,07,16,29,23.90
2011,08,07,16,30,23.80
2011,08,07,16,31,23.80
2011,08,07,16,32,23.80
2011,08,07,16,33,23.70
2011,08,07,16,34,23.60
2011,08,07,16,35,23.50
2011,08,07,16,36,23.40
2011,08,07,16,37,23.30
2011,08,07,16,38,23.20
2011,08,07,16,39,23.20
2011,08,07,16,40,23.20
2011,08,07,16,41,23.20
2011,08,07,16,42,23.20
2011,08,07,16,43,23.20
2011,08,07,16,44,23.20
2011,08,07,16,45,23.20
2011,08,07,16,46,23.20
2011,08,07,16,47,23.20
2011,08,07,16,48,23.20
2011,08,07,16,49,23.10
2011,08,07,16,50,23.10
2011,08,07,16,51,23.00
2011,08,07,16,52,23.00
2011,08,07,16,53,22.90
2011,08,07,16,54,23.00
2011,08,07,16,55,23.00
2011,08,07,16,56,23.10
2011,08,07,16,57,23.10
2011,08,07,16,58,23.10
2011,08,07,16,59,23.20
2011,08,07,17,00,23.20
2011,08,07,17,01,23.30
2011,08,07,17,02,23.30
2011,08,07,17,03,23.30
2011,08,07,17,04,23.30
2011,08,07,17,05,23.30
2011,08,07,17,06,23.30
2011,08,07,17,07,23.30
2011,08,07,17,08,23.40
2011,08,07,17,09,23.40
2011,08,07,17,10,23.40
2011,08,07,17,11,23.40
2011,08,07,17,12,23.30
2011,08,07,17,13,23.30
2011,08,07,17,14,23.30
2011,08,07,17,15,23.40
2011,08,07,17,16,23.40
2011,08,07,17,17,23.50
2011,08,07,17,18,23.50
2011,08,07,17,19,23.50